Regional Weather Roundup
Issued by NWS

Home | Current Version | Previous Version | Graphics & Text | Print | Product List | Glossary On
Versions: 1 2 3 4 5 6 7 8 9 10 11 12 13 14 15 16 17 18 19 20 21 22 23 24 25 26 27 28 29 30 31 32 33 34 35 36 37 38 39 40 41 42 43 44 45 46 47 48 49 50
000
ASUS45 KBOU 251607
RWRCO

WEATHER ROUNDUP FOR COLORADO
NATIONAL WEATHER SERVICE DENVER/BOULDER CO
1000 AM MDT SAT MAR 25 2017

NOTE: "FAIR" INDICATES FEW OR NO CLOUDS BELOW 12000 FEET WITH NO
SIGNIFICANT WEATHER AND/OR OBSTRUCTIONS TO VISIBILITY.

COZ001>005-013-030-031-251700-
...NORTHWEST COLORADO...

CITY           SKY/WX    TMP DP  RH WIND       PRES   REMARKS
CRAIG          FAIR      47  26  44 E13       30.05F
HAYDEN         FAIR      43  23  45 E8        30.06F
MEEKER         FAIR      47  26  44 CALM      30.05F
MOUNT WERNER   NOT AVBL
STEAMBOAT SPGS FAIR      35  27  74 CALM      30.08F
WALDEN         NOT AVBL
$$

COZ006>008-011-251700-
...WEST CENTRAL VALLEYS...

CITY           SKY/WX    TMP DP  RH WIND       PRES   REMARKS
GRAND JUNCTION FAIR      52  29  41 SE14      30.04F
MONTROSE       FAIR      48  25  40 CALM      30.09F
EAGLE          SUNNY     36  25  64 CALM      30.15F
RIFLE          FAIR      44  28  53 NW3       30.07F
DELTA          FAIR      49  28  45 NE3       30.08F
NUCLA          FAIR      45  28  53 CALM      30.12F
$$

COZ017>023-064>068-251700-
...SOUTHWEST COLORADO...

CITY           SKY/WX    TMP DP  RH WIND       PRES   REMARKS
DURANGO        FAIR      44  29  55 E6        30.13F
CORTEZ         FAIR      48  27  44 CALM      30.10F
PAGOSA SPRINGS FAIR      43  27  52 CALM      30.17F
TELLURIDE      NOT AVBL
WOLF CREEK PAS FAIR      32  10  40 S5        30.32S WCI  27
$$

COZ009-010-012-014-032>034-037-058>063-251700-
...CENTRAL COLORADO...

CITY           SKY/WX    TMP DP  RH WIND       PRES   REMARKS
ASPEN          FAIR      40  22  48 N5        30.10F
BUENA VISTA    FAIR      45  15  29 NE3       30.13F
COPPER MTN     NOT AVBL
BERTHOUD PASS  FAIR      30  19  64 NW9G18    30.24S WCI  22
COTTONWOOD PAS FAIR      45  16  31 E6        30.17F
GUNNISON       FAIR      32  25  75 CALM      30.20F
KREMMLING      FAIR      36  28  75 CALM      30.15F
LEADVILLE      FAIR      36   7  29 CALM      30.15F
MONARCH PASS   FAIR      32  10  40 SW14      30.35S WCI  22
SALIDA         FAIR      46  22  39 N8        30.19F
SUNLIGHT       FAIR      32  18  55 S5        30.22F WCI  27
WILKERSON PASS FAIR      37  -8  14 W5        30.24S
$$

COZ069>075-251700-
...SAN LUIS VALLEY/SANGRE DE CRISTO MOUNTAINS...

CITY           SKY/WX    TMP DP  RH WIND       PRES   REMARKS
ALAMOSA        FAIR      37  29  72 E5        30.19F
LA VETA PASS   NOT AVBL
SAGUACHE       FAIR      41  27  56 SE8       30.20F
$$

COZ035-036-038>040-251700-
...NORTHERN COLORADO FRONT RANGE...

CITY           SKY/WX    TMP DP  RH WIND       PRES   REMARKS
DENVER INTL AP PTSUNNY   52  33  48 S10       30.02F
DMNS CITY PARK   N/A     51  24  36 SE7       30.03S
AURORA         PTSUNNY   52  27  38 S12       30.03F
FRONT RANGE AP NOT AVBL
ERIE MUNI ARPT FAIR      45  32  60 NE5       30.03F
BOULDER MUN AP FAIR      46  30  53 CALM      30.03S
CENTENNIAL     FAIR      47  31  53 S9        30.03F
BROOMFIELD     PTSUNNY   46  28  49 CALM      30.03F
FORT COLLINS   FAIR      44  28  53 NE5       30.04F
LONGMONT       FAIR      50  32  49 CALM      30.04F
$$

COZ041-046-047-076>085-087-088-251700-
...PIKES PEAK/PALMER DIVIDE AND SOUTHERN FOOTHILLS...

CITY           SKY/WX    TMP DP  RH WIND       PRES   REMARKS
COLO. SPRINGS  FAIR      44  31  60 SE6       30.09S
A. F. ACADEMY  FAIR      41  31  66 CALM      30.07F
SCHRIEVER AFB  FAIR      42  31  63 S7        30.09F
ELLICOTT         N/A    N/A N/A N/A SW10      30.07F
FALCON         FAIR      45  28  50 S3        30.10S
FORT CARSON    FAIR      45  30  55 CALM      30.08S
LIMON          FAIR      42  35  76 SE7       30.07F
MONUMENT HILL  FAIR      37  28  70 S10       30.08F
TRINIDAD       FAIR      45  32  60 SW7       30.09F
$$

COZ042>045-048>051-090-091-251700-
...NORTHEAST COLORADO...

CITY           SKY/WX    TMP DP  RH WIND       PRES   REMARKS
GREELEY ARPT   FAIR      40  31  70 CALM      30.06F
AKRON          FAIR      50  27  40 S7        30.04F
BURLINGTON     FAIR      48  26  42 N5        30.07F
WRAY           NOT AVBL
STERLING       FAIR      43  37  81 S6        30.04F
HOLYOKE        FAIR      48  37  66 CALM      30.06S
FORT MORGAN    FAIR      46  31  55 S6        30.05S
$$

COZ086-089-092>099-251700-
...SOUTHEAST COLORADO...

CITY           SKY/WX    TMP DP  RH WIND       PRES   REMARKS
PUEBLO         FAIR      44  34  67 CALM      30.08F
LA JUNTA       FAIR      47  37  68 W7        30.08F
LAMAR          FAIR      49  35  58 W10       30.07F
SPRINGFIELD      N/A     51  30  44 N9        30.07F
$$



USA.gov is the U.S. government's official web portal to all federal, state and local government web resources and services.